Weather in Tokhtino

Russia / Kirov Oblast     58°38′00″N   48°31′02″E
temp.,
°C
wind,
m/s
gust,
m/s
humid.,
%
clouds,
%
prec.,
mm/h
press.,
hPa
HPBL,
m
4 december, sat
sat400:00−4ese2696100 0.3 1006175
03:00−1se41098100 2.5 1002479
06:000se41398100 5.1 997791
09:00+1s51499100 10.2 994961
12:000wsw61297100 2.6 994973
15:00−2wsw61179100 2.6 9981065
18:00−4sw5108998 0.1 10001029
21:00−4sw51289100 0.2 1001866
5 december, sun
sun500:00−6sw41190100 0.1 1003723
03:00−11w41091100 0.7 1006696
06:00−16wnw4991100 0.1 1010556
09:00−17wnw499197 0.1 1013485
12:00−16wnw3685100 0.0 1016520
15:00−17wnw369362 0.0 1018299
18:00−19nw25975 0.0 1020188
21:00−20nw11995 0.0 102225
6 december, mon
mon600:00−20nnw12985 0.0 102448
03:00−21nnw12985 0.0 102646
06:00−21n13985 0.0 102672
09:00−21n119711 0.0 102857
12:00−17n11885 0.0 1029158
15:00−19nne11975 0.0 10309
18:00−20ne11995 0.0 103213
21:00−21ene11995 0.0 103213
7 december, tue
tue700:00−21e11995 0.0 103314
03:00−21e119831 0.0 103435
06:00−20e25977 0.0 103383
09:00−17ese2791100 0.0 1033144
12:00−13ese3886100 0.0 1033201
15:00−12ese41086100 0.0 1031284
18:00−11ese51392100 0.1 1030373
21:00−9ese51694100 2.1 1028569
8 december, wed
wed800:00−8se61794100 2.5 1024761
03:00−7se61594100 5.6 1022747
06:00−7se61494100 2.2 1018641
09:00−6se51495100 5.3 1016555
12:00−2sse41497100 3.6 1014627
15:00+1ssw41199100 4.4 1014706
18:00+1ssw4999100 0.4 1016607
21:00+1ssw3899100 0.9 1017532